Home   Weather   Sankt Augustin   Past weeks

Flag for Germany Past Weather in Sankt Augustin, North Rhine-Westphalia, Germany — Yesterday and Last 2 Weeks

Now
70 °F

Partly sunny.


Feels Like: 70 °F
Forecast: 51 / 71 °F
Wind: 10 mph from Northwest

Location: Koeln / Bonn

Current Time: May 24, 2017 at 7:52:01 pm

Latest Report: May 24, 2017 at 7:20 pm


Visibility: N/A

Pressure: 30.18 "Hg

Humidity: 57%

Dew Point: 54 °F

Location of Sankt AugustinLocation

Past Weather in Sankt Augustin — Graph

°F

Sankt Augustin Temperature Yesterday

Maximum temperature yesterday: 75 °F (at 12:20 pm)
Minimum temperature yesterday: 55 °F (at 4:20 am)
Average temperature yesterday: 66 °F

High & Low Weather Summary for the Past Weeks

 TemperatureHumidityPressure
High82 °F (May 17, 2:50 pm)100% (May 10, 5:58 am)30.42 "Hg (May 10, 5:58 am)
Low30 °F (May 10, 6:20 am)27% (May 15, 6:50 pm)29.42 "Hg (May 11, 5:50 pm)
Average61 °F67%30.01 "Hg
* Reported May 9 6:20 pm — May 24 6:20 pm, Sankt Augustin. Weather by CustomWeather, © 2017

Note: Actual official high and low records may vary slightly from our data, if they occured in-between our weather recording intervals... More about our weather records

Advertising

Sankt Augustin Weather History for the Previous 24 Hours

Scroll right to see more
 ConditionsComfort  
Time TempWeatherWind HumidityBarometerVisibility
6:20 pm
Wed, May 24
70 °FPartly sunny.12 mph57%30.18 "HgN/A
5:50 pm72 °FBroken clouds.13 mph53%30.18 "HgN/A
5:20 pm70 °FBroken clouds.13 mph57%30.18 "HgN/A
4:50 pm70 °FPartly sunny.14 mph57%30.18 "HgN/A
4:20 pm70 °FBroken clouds.16 mph57%30.18 "HgN/A
3:50 pm72 °FBroken clouds.13 mph53%30.21 "HgN/A
3:20 pm70 °FBroken clouds.12 mph60%30.21 "HgN/A
2:50 pm68 °FPartly sunny.16 mph60%30.21 "HgN/A
2:20 pm68 °FPartly sunny.10 mph64%30.21 "HgN/A
1:50 pm68 °FBroken clouds.12 mph64%30.21 "HgN/A
1:20 pm68 °FBroken clouds.13 mph60%30.21 "HgN/A
12:50 pm68 °FBroken clouds.8 mph60%30.21 "HgN/A
12:20 pm68 °FPartly sunny.7 mph64%30.24 "HgN/A
11:50 am64 °FPartly sunny.8 mph68%30.24 "HgN/A
11:20 am64 °FPartly sunny.8 mph64%30.24 "HgN/A
10:50 am63 °FBroken clouds.9 mph64%30.24 "HgN/A
10:20 am63 °FBroken clouds.5 mph59%30.24 "HgN/A
9:50 am63 °FPartly sunny.2 mph59%30.24 "HgN/A
9:20 am59 °FPartly sunny.1 mph68%30.24 "HgN/A
8:50 am59 °FPartly sunny.1 mph63%30.24 "HgN/A
8:20 am57 °FBroken clouds.2 mph72%30.24 "HgN/A
7:50 am55 °FBroken clouds.2 mph77%30.24 "HgN/A
7:23 am54 °FPartly sunny.1 mph82%30.21 "HgN/A
7:20 am54 °FPartly sunny.2 mph82%30.21 "HgN/A
6:50 am50 °FScattered clouds.2 mph88%30.21 "HgN/A
6:20 am50 °FBroken clouds.2 mph88%30.21 "HgN/A
5:50 am48 °FScattered clouds.1 mph87%30.21 "HgN/A
5:20 am50 °FClear.No wind82%30.21 "Hg10 mi
4:50 am50 °FPassing clouds.1 mph82%30.21 "HgN/A
4:20 am50 °FClear.1 mph88%30.21 "Hg10 mi
3:50 am52 °FClear.No wind82%30.21 "Hg10 mi
3:20 am54 °FClear.1 mph72%30.21 "Hg10 mi
2:50 am52 °FClear.2 mph82%30.21 "Hg10 mi
2:20 am52 °FClear.1 mph77%30.21 "Hg10 mi
1:50 am54 °FClear.5 mph72%30.21 "Hg10 mi
1:20 am54 °FPassing clouds.3 mph77%30.21 "HgN/A
12:50 am55 °FClear.5 mph72%30.21 "Hg10 mi
12:20 am55 °FClear.3 mph72%30.21 "Hg10 mi
11:50 pm
Tue, May 23
55 °FClear.5 mph72%30.21 "Hg10 mi
11:20 pm59 °FPassing clouds.6 mph59%30.21 "HgN/A
10:50 pm61 °FClear.9 mph55%30.21 "Hg10 mi
10:20 pm63 °FClear.12 mph52%30.18 "Hg10 mi
9:50 pm63 °FClear.15 mph52%30.18 "Hg10 mi
9:20 pm64 °FPassing clouds.15 mph49%30.15 "HgN/A
8:50 pm64 °FPartly sunny.14 mph46%30.15 "HgN/A
8:23 pm66 °FPassing clouds.17 mph43%30.12 "HgN/A
8:20 pm66 °FPassing clouds.15 mph49%30.12 "HgN/A
7:50 pm68 °FSunny.18 mph49%30.12 "Hg10 mi
7:20 pm70 °FSunny.18 mph46%30.09 "Hg10 mi
Weather by CustomWeather, © 2017

See weather overviewHow to use our weather pages